Location: �perlecques
(50.8057°N, 2.1521°E)
Time: 17:27:08
(UTC+00:00)

KKS-1 - Pass Details

Date: 05 April 2023
Orbit: 633 x 644 km, 98.2° (Epoch: 03 June)

Event Time Altitude Azimuth Distance (km) Brightness Sun altitude
Rises 23:51:11 0° 4° (N) 2,944 ? -32.9°
Reaches altitude 10° 23:53:47 10° 349° (N) 2,031 ? -32.9°
Enters shadow 23:56:11 20° 318° (NW) 1,464 ? -32.9°
